Meteo pe oră la Dziegciarnia

Astăzi, 1 Octombrie, Joi

Timp Temperatura Precipitaţii Vânt Presiune Umiditate
00:00 +12°C° 0.3 mm 3 m/s 748 mmHg 87%
01:00 +13°C° 0 mm 3 m/s 748 mmHg 91%
02:00 +13°C° 0.1 mm 3 m/s 747 mmHg 91%
03:00 +12°C° 0.1 mm 3 m/s 746 mmHg 91%
04:00 +12°C° 0.1 mm 3 m/s 746 mmHg 92%
05:00 +12°C° 0.1 mm 3 m/s 746 mmHg 91%
06:00 +13°C° 0.1 mm 3 m/s 746 mmHg 90%
07:00 +13°C° 0.1 mm 3 m/s 746 mmHg 89%
08:00 +13°C° 0 mm 3 m/s 745 mmHg 84%
09:00 +14°C° 0 mm 3 m/s 745 mmHg 78%
10:00 +16°C° 0 mm 3 m/s 745 mmHg 73%
11:00 +16°C° 0 mm 3 m/s 744 mmHg 70%
12:00 +17°C° 0 mm 3 m/s 744 mmHg 68%
13:00 +17°C° 0 mm 4 m/s 744 mmHg 65%
14:00 +17°C° 0 mm 4 m/s 744 mmHg 67%
15:00 +15°C° 0 mm 4 m/s 743 mmHg 70%
16:00 +15°C° 0 mm 4 m/s 743 mmHg 72%
17:00 +14°C° 0 mm 3 m/s 743 mmHg 74%
18:00 +14°C° 0 mm 3 m/s 743 mmHg 75%
19:00 +14°C° 0 mm 2 m/s 743 mmHg 76%
20:00 +14°C° 0 mm 2 m/s 743 mmHg 77%
21:00 +12°C° 0 mm 3 m/s 743 mmHg 79%
22:00 +12°C° 0 mm 3 m/s 743 mmHg 80%
23:00 +11°C° 0 mm 3 m/s 743 mmHg 84%

Mâine, 2 Octombrie, Vineri

Timp Temperatura Precipitaţii Vânt Presiune Umiditate
00:00 +11°C° 0 mm 3 m/s 743 mmHg 89%
01:00 +10°C° 0 mm 3 m/s 743 mmHg 93%
02:00 +11°C° 0 mm 4 m/s 743 mmHg 92%
03:00 +11°C° 0 mm 4 m/s 743 mmHg 91%
04:00 +11°C° 0 mm 4 m/s 743 mmHg 90%
05:00 +11°C° 0 mm 4 m/s 743 mmHg 90%
06:00 +11°C° 0 mm 4 m/s 743 mmHg 90%
07:00 +11°C° 0 mm 4 m/s 743 mmHg 90%
08:00 +12°C° 0 mm 5 m/s 743 mmHg 86%
09:00 +13°C° 0 mm 5 m/s 743 mmHg 83%
10:00 +14°C° 0 mm 5 m/s 743 mmHg 80%
11:00 +14°C° 0.2 mm 5 m/s 743 mmHg 78%
12:00 +14°C° 0.2 mm 5 m/s 743 mmHg 77%
13:00 +15°C° 0.2 mm 4 m/s 743 mmHg 76%
14:00 +15°C° 0 mm 4 m/s 743 mmHg 75%
15:00 +15°C° 0 mm 5 m/s 743 mmHg 74%
16:00 +15°C° 0 mm 5 m/s 743 mmHg 74%
17:00 +14°C° 0 mm 5 m/s 743 mmHg 78%
18:00 +13°C° 0 mm 4 m/s 743 mmHg 83%
19:00 +12°C° 0 mm 4 m/s 743 mmHg 88%
20:00 +12°C° 0 mm 5 m/s 743 mmHg 90%
21:00 +12°C° 0 mm 5 m/s 743 mmHg 92%
22:00 +10°C° 0 mm 5 m/s 742 mmHg 94%
23:00 +10°C° 0 mm 5 m/s 742 mmHg 94%

Poimâine, 3 Octombrie, Sâmbătă

Timp Temperatura Precipitaţii Vânt Presiune Umiditate
00:00 +10°C° 0 mm 5 m/s 742 mmHg 95%
01:00 +10°C° 0 mm 6 m/s 741 mmHg 95%
02:00 +10°C° 0 mm 6 m/s 741 mmHg 93%
03:00 +11°C° 0 mm 6 m/s 740 mmHg 92%
04:00 +11°C° 0 mm 7 m/s 740 mmHg 90%
05:00 +12°C° 0 mm 7 m/s 740 mmHg 88%
06:00 +12°C° 0 mm 7 m/s 739 mmHg 86%
07:00 +14°C° 0 mm 7 m/s 739 mmHg 84%
08:00 +15°C° 0 mm 7 m/s 739 mmHg 79%
09:00 +16°C° 0 mm 8 m/s 738 mmHg 75%
10:00 +18°C° 0 mm 8 m/s 738 mmHg 70%
11:00 +20°C° 0 mm 8 m/s 738 mmHg 65%
12:00 +21°C° 0 mm 8 m/s 738 mmHg 59%
13:00 +23°C° 0 mm 7 m/s 737 mmHg 54%
14:00 +23°C° 0 mm 6 m/s 737 mmHg 55%
15:00 +23°C° 0 mm 5 m/s 737 mmHg 57%
16:00 +23°C° 0 mm 4 m/s 736 mmHg 58%
17:00 +22°C° 0 mm 5 m/s 736 mmHg 61%
18:00 +21°C° 0 mm 6 m/s 736 mmHg 63%
19:00 +20°C° 0 mm 6 m/s 736 mmHg 65%
20:00 +20°C° 0 mm 7 m/s 736 mmHg 65%
21:00 +20°C° 0 mm 7 m/s 736 mmHg 64%
22:00 +20°C° 0 mm 7 m/s 736 mmHg 63%
23:00 +20°C° 0 mm 8 m/s 736 mmHg 64%

4 Octombrie, Duminică

Timp Temperatura Precipitaţii Vânt Presiune Umiditate
00:00 +18°C° 0 mm 8 m/s 736 mmHg 65%
01:00 +18°C° 0 mm 8 m/s 735 mmHg 66%
02:00 +18°C° 0 mm 8 m/s 736 mmHg 65%
03:00 +18°C° 0 mm 8 m/s 736 mmHg 65%
04:00 +20°C° 0 mm 7 m/s 736 mmHg 64%
05:00 +19°C° 0 mm 6 m/s 736 mmHg 70%
06:00 +17°C° 0 mm 4 m/s 737 mmHg 76%
07:00 +16°C° 0 mm 2 m/s 737 mmHg 82%
08:00 +17°C° 0 mm 2 m/s 738 mmHg 78%
09:00 +17°C° 0 mm 3 m/s 739 mmHg 75%
10:00 +18°C° 0 mm 3 m/s 739 mmHg 72%
11:00 +19°C° 0 mm 3 m/s 740 mmHg 69%
12:00 +19°C° 0 mm 3 m/s 741 mmHg 66%
13:00 +20°C° 0 mm 3 m/s 741 mmHg 63%
14:00 +20°C° 0 mm 3 m/s 742 mmHg 63%
15:00 +19°C° 0 mm 2 m/s 742 mmHg 63%
16:00 +19°C° 0 mm 2 m/s 742 mmHg 63%
17:00 +18°C° 0 mm 2 m/s 743 mmHg 68%
18:00 +18°C° 0 mm 1 m/s 743 mmHg 73%
19:00 +16°C° 0 mm 1 m/s 743 mmHg 78%
20:00 +16°C° 0 mm 1 m/s 743 mmHg 80%
21:00 +15°C° 0 mm 2 m/s 743 mmHg 82%
22:00 +14°C° 0 mm 3 m/s 744 mmHg 84%
23:00 +14°C° 0 mm 3 m/s 743 mmHg 84%

5 Octombrie, Luni

Timp Temperatura Precipitaţii Vânt Presiune Umiditate
00:00 +13°C° 0 mm 3 m/s 743 mmHg 84%
01:00 +13°C° 0 mm 3 m/s 743 mmHg 83%
02:00 +13°C° 0 mm 3 m/s 743 mmHg 83%
03:00 +13°C° 0 mm 4 m/s 743 mmHg 82%
04:00 +13°C° 0 mm 4 m/s 742 mmHg 81%
05:00 +13°C° 0 mm 4 m/s 742 mmHg 81%
06:00 +13°C° 0 mm 4 m/s 742 mmHg 81%
07:00 +13°C° 0 mm 4 m/s 742 mmHg 81%
08:00 +15°C° 0 mm 5 m/s 741 mmHg 75%
09:00 +16°C° 0 mm 5 m/s 741 mmHg 68%
10:00 +19°C° 0 mm 6 m/s 741 mmHg 62%
11:00 +20°C° 0.1 mm 6 m/s 741 mmHg 60%
12:00 +21°C° 0.1 mm 6 m/s 741 mmHg 57%
13:00 +21°C° 0.1 mm 6 m/s 741 mmHg 55%
14:00 +21°C° 0 mm 6 m/s 741 mmHg 57%
15:00 +20°C° 0 mm 5 m/s 741 mmHg 58%
16:00 +20°C° 0 mm 4 m/s 741 mmHg 60%
17:00 +17°C° 0.2 mm 5 m/s 741 mmHg 67%
18:00 +16°C° 0.2 mm 5 m/s 741 mmHg 74%
19:00 +15°C° 0.2 mm 5 m/s 742 mmHg 81%
20:00 +14°C° 0 mm 5 m/s 742 mmHg 81%
21:00 +14°C° 0 mm 5 m/s 743 mmHg 82%
22:00 +13°C° 0 mm 6 m/s 744 mmHg 83%
23:00 +12°C° 0 mm 5 m/s 744 mmHg 84%

6 Octombrie, Marţi

Timp Temperatura Precipitaţii Vânt Presiune Umiditate
00:00 +11°C° 0 mm 4 m/s 744 mmHg 85%
01:00 +11°C° 0 mm 4 m/s 745 mmHg 85%
02:00 +10°C° 0 mm 4 m/s 745 mmHg 86%
03:00 +10°C° 0 mm 4 m/s 745 mmHg 87%
04:00 +10°C° 0 mm 3 m/s 746 mmHg 88%
05:00 +10°C° 0 mm 3 m/s 746 mmHg 88%
06:00 +10°C° 0 mm 3 m/s 746 mmHg 87%
07:00 +10°C° 0 mm 3 m/s 746 mmHg 86%
08:00 +12°C° 0 mm 4 m/s 746 mmHg 78%
09:00 +13°C° 0 mm 4 m/s 746 mmHg 71%
10:00 +15°C° 0 mm 4 m/s 747 mmHg 63%
11:00 +17°C° 0 mm 4 m/s 746 mmHg 59%
12:00 +18°C° 0 mm 4 m/s 746 mmHg 55%
13:00 +19°C° 0 mm 4 m/s 746 mmHg 51%
14:00 +18°C° 0 mm 3 m/s 746 mmHg 54%
15:00 +18°C° 0 mm 2 m/s 746 mmHg 57%
16:00 +19°C° 0 mm 1 m/s 745 mmHg 59%
17:00 +18°C° 0 mm 1 m/s 745 mmHg 61%
18:00 +16°C° 0 mm 1 m/s 745 mmHg 63%
19:00 +15°C° 0 mm 1 m/s 745 mmHg 64%
20:00 +15°C° 0 mm 1 m/s 745 mmHg 65%
21:00 +15°C° 0 mm 1 m/s 745 mmHg 66%
22:00 +15°C° 0 mm 1 m/s 745 mmHg 67%
23:00 +14°C° 0 mm 2 m/s 746 mmHg 70%
Arată mai mult

We Need Your Consent

Meteoprog and our Service Providers may store and access personal data such as cookies, device identifiers or other similar technologies on your device and process such data to personalise content and ads, as well as provide social media features and to analyse the traffic.

  • Store and/or access information on your device

    Cookies, device identifiers or other information can be stored or accessed on your device for the purposes indicated above.

  • Personalised ads and content, ad and content measurement, audience insights, and products development

    Ads and content can be personalised based on a profile. More data can be added to better personalise ads and content. Ad and content performance can be measured. Insights about the audience who saw the ads and content can be derived. Such data can be used to develop or improve user’s experience, systems and software.

By clicking ‘I Agree’ you will allow the use of indicated cookies, device identifiers, web beacons or other similar technologies. Your settings can be changed in the browser on your device.

For certain purposes, legitimate interests may be relied on, rather than consent. You can read more about this in our Privacy and Cookie Policy.